| time (UTC) | temp C | wind direction | speed KPH | gust KPH | rain 1hr cm | rain 24hr cm | rain mn cm | humidity % | barometer mb |
| 20260509185856 | 18 | 225 | 14.5 | 24.1 | 0.00 | 0.00 | 0.00 | 64 | 1027.0 |
| 20260509185356 | 18 | 270 | 12.9 | 24.1 | 0.00 | 0.00 | 0.00 | 67 | 1028.0 |
| 20260509184857 | 18 | 203 | 16.1 | 24.1 | 0.00 | 0.00 | 0.00 | 67 | 1028.0 |
| 20260509184356 | 18 | 225 | 16.1 | 19.3 | 0.00 | 0.00 | 0.00 | 67 | 1027.0 |
| 20260509183858 | 18 | 180 | 22.5 | 22.5 | 0.00 | 0.00 | 0.00 | 68 | 1028.0 |
| 20260509183356 | 18 | 225 | 19.3 | 22.5 | 0.00 | 0.00 | 0.00 | 68 | 1028.0 |
| 20260509182856 | 18 | 225 | 16.1 | 22.5 | 0.00 | 0.00 | 0.00 | 68 | 1028.0 |
| 20260509182356 | 17 | 203 | 12.9 | 19.3 | 0.00 | 0.00 | 0.00 | 68 | 1028.0 |
| 20260509181859 | 17 | 225 | 16.1 | 20.9 | 0.00 | 0.00 | 0.00 | 68 | 1028.0 |
| 20260509181356 | 17 | 203 | 11.3 | 19.3 | 0.00 | 0.00 | 0.00 | 68 | 1028.0 |
| 20260509180856 | 17 | 225 | 16.1 | 17.7 | 0.00 | 0.00 | 0.00 | 68 | 1028.0 |
| 20260509180356 | 17 | 225 | 16.1 | 22.5 | 0.00 | 0.00 | 0.00 | 68 | 1028.0 |
| 20260509175856 | 17 | 225 | 11.3 | 16.1 | 0.00 | 0.00 | 0.00 | 68 | 1028.0 |
| 20260509175356 | 17 | 225 | 14.5 | 20.9 | 0.00 | 0.00 | 0.00 | 68 | 1028.0 |
| 20260509174856 | 17 | 225 | 16.1 | 22.5 | 0.00 | 0.00 | 0.00 | 67 | 1028.0 |
| 20260509174356 | 17 | 248 | 17.7 | 20.9 | 0.00 | 0.00 | 0.00 | 67 | 1028.0 |
| 20260509173856 | 17 | 225 | 17.7 | 19.3 | 0.00 | 0.00 | 0.00 | 67 | 1028.0 |
| 20260509173357 | 17 | 270 | 16.1 | 19.3 | 0.00 | 0.00 | 0.00 | 67 | 1028.0 |
| 20260509172858 | 17 | 203 | 11.3 | 17.7 | 0.00 | 0.00 | 0.00 | 67 | 1028.0 |
| 20260509172356 | 18 | 225 | 12.9 | 14.5 | 0.00 | 0.00 | 0.00 | 66 | 1028.0 |
| 20260509171856 | 18 | 248 | 19.3 | 19.3 | 0.00 | 0.00 | 0.00 | 66 | 1028.0 |
| 20260509170909 | 17 | 203 | 6.4 | 16.1 | 0.00 | 0.00 | 0.00 | 67 | 1028.0 |
| 20260509170356 | 17 | 248 | 12.9 | 17.7 | 0.00 | 0.00 | 0.00 | 67 | 1028.0 |
| 20260509165856 | 17 | 203 | 16.1 | 19.3 | 0.00 | 0.00 | 0.00 | 67 | 1029.0 |
| 20260509165356 | 17 | 293 | 6.4 | 12.9 | 0.00 | 0.00 | 0.00 | 67 | 1028.0 |
| 20260509164856 | 17 | 248 | 9.7 | 17.7 | 0.00 | 0.00 | 0.00 | 66 | 1028.0 |
| 20260509164358 | 18 | 225 | 11.3 | 20.9 | 0.00 | 0.00 | 0.00 | 67 | 1028.0 |
| 20260509163856 | 17 | 180 | 9.7 | 16.1 | 0.00 | 0.00 | 0.00 | 67 | 1029.0 |
| 20260509163357 | 17 | 248 | 9.7 | 14.5 | 0.00 | 0.00 | 0.00 | 67 | 1029.0 |
| 20260509162857 | 17 | 248 | 16.1 | 17.7 | 0.00 | 0.00 | 0.00 | 67 | 1029.0 |
| 20260509162356 | 17 | 270 | 11.3 | 24.1 | 0.00 | 0.00 | 0.00 | 67 | 1029.0 |
| 20260509161856 | 17 | 225 | 14.5 | 14.5 | 0.00 | 0.00 | 0.00 | 68 | 1029.0 |
| 20260509161356 | 17 | 225 | 12.9 | 12.9 | 0.00 | 0.00 | 0.00 | 68 | 1029.0 |
| 20260509160856 | 17 | 270 | 11.3 | 16.1 | 0.00 | 0.00 | 0.00 | 69 | 1029.0 |
| 20260509160356 | 16 | 225 | 9.7 | 16.1 | 0.00 | 0.00 | 0.00 | 68 | 1029.0 |
| 20260509155856 | 17 | 270 | 12.9 | 12.9 | 0.00 | 0.00 | 0.00 | 69 | 1029.0 |
| 20260509155356 | 16 | 180 | 9.7 | 17.7 | 0.00 | 0.00 | 0.00 | 69 | 1029.0 |
| 20260509154856 | 16 | 248 | 8.0 | 14.5 | 0.00 | 0.00 | 0.00 | 68 | 1029.0 |
| 20260509154357 | 17 | 225 | 14.5 | 14.5 | 0.00 | 0.00 | 0.00 | 70 | 1029.0 |
| 20260509153858 | 16 | 270 | 6.4 | 16.1 | 0.00 | 0.00 | 0.00 | 71 | 1029.0 |
| 20260509153356 | 16 | 248 | 12.9 | 12.9 | 0.00 | 0.00 | 0.00 | 72 | 1029.0 |
| 20260509152857 | 15 | 180 | 4.8 | 11.3 | 0.00 | 0.00 | 0.00 | 72 | 1029.0 |
| 20260509152356 | 15 | 203 | 8.0 | 11.3 | 0.00 | 0.00 | 0.00 | 72 | 1029.0 |
| 20260509151856 | 15 | 203 | 12.9 | 12.9 | 0.00 | 0.00 | 0.00 | 73 | 1029.0 |
| 20260509151357 | 16 | 225 | 14.5 | 16.1 | 0.00 | 0.00 | 0.00 | 73 | 1029.0 |
| 20260509150856 | 16 | 270 | 9.7 | 14.5 | 0.00 | 0.00 | 0.00 | 73 | 1029.0 |
| 20260509150356 | 15 | 203 | 8.0 | 9.7 | 0.00 | 0.00 | 0.00 | 73 | 1029.0 |
| 20260509145856 | 16 | 225 | 8.0 | 14.5 | 0.00 | 0.00 | 0.00 | 73 | 1029.0 |
| 20260509145356 | 15 | 270 | 9.7 | 14.5 | 0.00 | 0.00 | 0.00 | 75 | 1029.0 |
| 20260509144856 | 15 | 203 | 8.0 | 11.3 | 0.00 | 0.00 | 0.00 | 75 | 1029.0 |
| 20260509144356 | 15 | 203 | 8.0 | 12.9 | 0.00 | 0.00 | 0.00 | 75 | 1029.0 |
| 20260509143856 | 15 | 248 | 8.0 | 9.7 | 0.00 | 0.00 | 0.00 | 75 | 1029.0 |
| 20260509143356 | 15 | 203 | 4.8 | 8.0 | 0.00 | 0.00 | 0.00 | 75 | 1029.0 |
| 20260509142856 | 15 | 225 | 11.3 | 11.3 | 0.00 | 0.00 | 0.00 | 75 | 1029.0 |
| 20260509142356 | 15 | 203 | 6.4 | 12.9 | 0.00 | 0.00 | 0.00 | 75 | 1029.0 |
| 20260509141856 | 15 | 225 | 14.5 | 16.1 | 0.00 | 0.00 | 0.00 | 75 | 1029.0 |
| 20260509141356 | 15 | 203 | 9.7 | 9.7 | 0.00 | 0.00 | 0.00 | 77 | 1029.0 |
| 20260509140856 | 15 | 225 | 11.3 | 14.5 | 0.00 | 0.00 | 0.00 | 78 | 1029.0 |
| 20260509140356 | 15 | 248 | 6.4 | 11.3 | 0.00 | 0.00 | 0.00 | 80 | 1029.0 |
| 20260509135857 | 14 | 203 | 8.0 | 14.5 | 0.00 | 0.00 | 0.00 | 80 | 1030.0 |
| 20260509135401 | 14 | 248 | 12.9 | 14.5 | 0.00 | 0.00 | 0.00 | 80 | 1030.0 |
| 20260509134857 | 15 | 203 | 8.0 | 16.1 | 0.00 | 0.00 | 0.00 | 80 | 1030.0 |
| 20260509134356 | 15 | 270 | 14.5 | 16.1 | 0.00 | 0.00 | 0.00 | 81 | 1029.0 |
| 20260509133856 | 13 | 180 | 6.4 | 14.5 | 0.00 | 0.00 | 0.00 | 81 | 1029.0 |
| 20260509133356 | 14 | 203 | 11.3 | 12.9 | 0.00 | 0.00 | 0.00 | 81 | 1030.0 |
| 20260509132856 | 13 | 180 | 14.5 | 16.1 | 0.00 | 0.00 | 0.00 | 81 | 1030.0 |
| 20260509132356 | 14 | 225 | 14.5 | 19.3 | 0.00 | 0.00 | 0.00 | 81 | 1030.0 |
| 20260509131856 | 14 | 225 | 12.9 | 12.9 | 0.00 | 0.00 | 0.00 | 82 | 1030.0 |
| 20260509131356 | 13 | 180 | 12.9 | 16.1 | 0.00 | 0.00 | 0.00 | 83 | 1030.0 |
| 20260509130856 | 13 | 180 | 11.3 | 11.3 | 0.00 | 0.00 | 0.00 | 83 | 1030.0 |
| 20260509130357 | 13 | 180 | 9.7 | 9.7 | 0.00 | 0.00 | 0.00 | 84 | 1030.0 |
| 20260509125856 | 13 | 203 | 4.8 | 8.0 | 0.00 | 0.00 | 0.00 | 85 | 1030.0 |
| 20260509125356 | 13 | 180 | 8.0 | 9.7 | 0.00 | 0.00 | 0.00 | 85 | 1030.0 |
| 20260509124856 | 12 | 113 | 8.0 | 9.7 | 0.00 | 0.00 | 0.00 | 86 | 1030.0 |
| 20260509124356 | 12 | 180 | 6.4 | 8.0 | 0.00 | 0.00 | 0.00 | 87 | 1030.0 |
| 20260509123856 | 12 | 158 | 4.8 | 9.7 | 0.00 | 0.00 | 0.00 | 88 | 1030.0 |
| 20260509123357 | 12 | 113 | 6.4 | 6.4 | 0.00 | 0.00 | 0.00 | 89 | 1030.0 |
| 20260509122856 | 11 | 158 | 3.2 | 4.8 | 0.00 | 0.00 | 0.00 | 89 | 1030.0 |
| 20260509121912 | 11 | 135 | 4.8 | 4.8 | 0.00 | 0.00 | 0.00 | 90 | 1030.0 |
| 20260509121356 | 10 | 158 | 4.8 | 4.8 | 0.00 | 0.00 | 0.00 | 91 | 1030.0 |
| 20260509120856 | 10 | 180 | 4.8 | 6.4 | 0.00 | 0.00 | 0.00 | 92 | 1030.0 |
| 20260509120356 | 10 | 158 | 3.2 | 4.8 | 0.00 | 0.00 | 0.00 | 92 | 1030.0 |
| 20260509115856 | 10 | 180 | 4.8 | 6.4 | 0.00 | 0.00 | 0.00 | 93 | 1030.0 |
| 20260509115356 | 10 | 158 | 4.8 | 4.8 | 0.00 | 0.00 | 0.00 | 93 | 1030.0 |
| 20260509114856 | 9 | 158 | 6.4 | 6.4 | 0.00 | 0.00 | 0.00 | 94 | 1030.0 |
| 20260509114356 | 9 | 158 | 3.2 | 4.8 | 0.00 | 0.00 | 0.00 | 94 | 1030.0 |
| 20260509113856 | 8 | 113 | 3.2 | 3.2 | 0.00 | 0.00 | 0.00 | 95 | 1030.0 |
| 20260509113357 | 8 | 158 | 3.2 | 4.8 | 0.00 | 0.00 | 0.00 | 95 | 1030.0 |
| 20260509112856 | 8 | 180 | 3.2 | 6.4 | 0.00 | 0.00 | 0.00 | 96 | 1030.0 |
| 20260509112356 | 8 | 135 | 6.4 | 6.4 | 0.00 | 0.00 | 0.00 | 96 | 1030.0 |
| 20260509111856 | 7 | 113 | 3.2 | 3.2 | 0.00 | 0.00 | 0.00 | 96 | 1030.0 |
| 20260509111357 | 7 | 113 | 3.2 | 3.2 | 0.00 | 0.00 | 0.00 | 96 | 1030.0 |
| 20260509110857 | 7 | 90 | 3.2 | 3.2 | 0.00 | 0.00 | 0.00 | 96 | 1030.0 |
| 20260509110356 | 7 | 90 | 1.6 | 3.2 | 0.00 | 0.00 | 0.00 | 96 | 1030.0 |
| 20260509105856 | 6 | 113 | 1.6 | 1.6 | 0.00 | 0.00 | 0.00 | 96 | 1030.0 |
| 20260509105356 | 6 | 113 | 3.2 | 3.2 | 0.00 | 0.00 | 0.00 | 96 | 1030.0 |
| 20260509104856 | 6 | 113 | 3.2 | 3.2 | 0.00 | 0.00 | 0.00 | 96 | 1030.0 |
| 20260509104356 | 6 | 113 | 3.2 | 3.2 | 0.00 | 0.00 | 0.00 | 95 | 1030.0 |
| 20260509103857 | 6 | 113 | 0.0 | 3.2 | 0.00 | 0.00 | 0.00 | 95 | 1030.0 |
| 20260509103356 | 6 | 113 | 1.6 | 3.2 | 0.00 | 0.00 | 0.00 | 95 | 1030.0 |
| 20260509102856 | 6 | 135 | 0.0 | 1.6 | 0.00 | 0.00 | 0.00 | 95 | 1030.0 |
| 20260509102356 | 6 | 113 | 1.6 | 3.2 | 0.00 | 0.00 | 0.00 | 95 | 1030.0 |
| 20260509101856 | 6 | 113 | 1.6 | 1.6 | 0.00 | 0.00 | 0.00 | 95 | 1030.0 |
| 20260509101357 | 6 | 113 | 3.2 | 3.2 | 0.00 | 0.00 | 0.00 | 94 | 1030.0 |
| 20260509100856 | 6 | 135 | 1.6 | 1.6 | 0.00 | 0.00 | 0.00 | 94 | 1030.0 |
| 20260509100356 | 6 | 113 | 3.2 | 3.2 | 0.00 | 0.00 | 0.00 | 94 | 1030.0 |
| 20260509095856 | 6 | 113 | 1.6 | 3.2 | 0.00 | 0.00 | 0.00 | 94 | 1030.0 |
| 20260509095357 | 6 | 113 | 1.6 | 4.8 | 0.00 | 0.00 | 0.00 | 93 | 1030.0 |
| 20260509094856 | 6 | 113 | 1.6 | 3.2 | 0.00 | 0.00 | 0.00 | 93 | 1030.0 |
| 20260509094356 | 6 | 90 | 1.6 | 3.2 | 0.00 | 0.00 | 0.00 | 92 | 1030.0 |
| 20260509093856 | 6 | 68 | 1.6 | 3.2 | 0.00 | 0.00 | 0.00 | 92 | 1030.0 |
| 20260509093356 | 6 | 113 | 3.2 | 3.2 | 0.00 | 0.00 | 0.00 | 91 | 1030.0 |
| 20260509092856 | 6 | 113 | 1.6 | 3.2 | 0.00 | 0.00 | 0.00 | 91 | 1030.0 |
| 20260509092357 | 6 | 135 | 1.6 | 3.2 | 0.00 | 0.00 | 0.00 | 90 | 1030.0 |
| 20260509091856 | 6 | 113 | 1.6 | 1.6 | 0.00 | 0.00 | 0.00 | 90 | 1030.0 |
| 20260509091356 | 6 | 113 | 1.6 | 3.2 | 0.00 | 0.00 | 0.00 | 89 | 1030.0 |
| 20260509090856 | 6 | 113 | 1.6 | 3.2 | 0.00 | 0.00 | 0.00 | 89 | 1030.0 |
| 20260509090357 | 6 | 90 | 1.6 | 3.2 | 0.00 | 0.00 | 0.00 | 88 | 1030.0 |
| 20260509085856 | 6 | 113 | 1.6 | 1.6 | 0.00 | 0.00 | 0.00 | 88 | 1030.0 |
| 20260509085356 | 6 | 135 | 3.2 | 3.2 | 0.00 | 0.00 | 0.00 | 87 | 1030.0 |
| 20260509084856 | 6 | 113 | 1.6 | 3.2 | 0.00 | 0.00 | 0.00 | 86 | 1030.0 |
| 20260509084357 | 6 | 135 | 3.2 | 3.2 | 0.00 | 0.00 | 0.00 | 86 | 1030.0 |
| 20260509083856 | 6 | 113 | 1.6 | 3.2 | 0.00 | 0.00 | 0.00 | 86 | 1030.0 |
| 20260509083356 | 6 | 113 | 1.6 | 3.2 | 0.00 | 0.00 | 0.00 | 85 | 1030.0 |
| 20260509082856 | 6 | 113 | 1.6 | 3.2 | 0.00 | 0.00 | 0.00 | 85 | 1030.0 |
| 20260509082357 | 6 | 113 | 1.6 | 3.2 | 0.00 | 0.00 | 0.00 | 84 | 1030.0 |
| 20260509081856 | 6 | 113 | 3.2 | 4.8 | 0.00 | 0.00 | 0.00 | 84 | 1030.0 |
| 20260509081356 | 6 | 135 | 1.6 | 4.8 | 0.00 | 0.00 | 0.00 | 83 | 1030.0 |
| 20260509080856 | 6 | 113 | 3.2 | 4.8 | 0.00 | 0.00 | 0.00 | 82 | 1030.0 |
| 20260509080356 | 6 | 180 | 3.2 | 6.4 | 0.00 | 0.00 | 0.00 | 82 | 1031.0 |
| 20260509075856 | 6 | 135 | 4.8 | 6.4 | 0.00 | 0.00 | 0.00 | 82 | 1030.0 |
| 20260509075356 | 5 | 113 | 3.2 | 6.4 | 0.00 | 0.00 | 0.00 | 81 | 1031.0 |
| 20260509074857 | 5 | 158 | 3.2 | 6.4 | 0.00 | 0.00 | 0.00 | 81 | 1031.0 |
| 20260509074356 | 5 | 135 | 3.2 | 4.8 | 0.00 | 0.00 | 0.00 | 80 | 1031.0 |
| 20260509073856 | 5 | 135 | 1.6 | 6.4 | 0.00 | 0.00 | 0.00 | 80 | 1031.0 |
| 20260509073356 | 5 | 158 | 1.6 | 4.8 | 0.00 | 0.00 | 0.00 | 80 | 1031.0 |
| 20260509072856 | 5 | 135 | 3.2 | 4.8 | 0.00 | 0.00 | 0.00 | 79 | 1031.0 |
| 20260509072356 | 5 | 113 | 4.8 | 4.8 | 0.00 | 0.00 | 0.00 | 79 | 1031.0 |
| 20260509071856 | 5 | 113 | 3.2 | 4.8 | 0.00 | 0.00 | 0.00 | 79 | 1031.0 |
| 20260509071357 | 5 | 113 | 3.2 | 3.2 | 0.00 | 0.00 | 0.00 | 78 | 1031.0 |
| 20260509070856 | 5 | 135 | 3.2 | 4.8 | 0.00 | 0.00 | 0.00 | 78 | 1031.0 |
| 20260509070356 | 5 | 113 | 3.2 | 4.8 | 0.00 | 0.00 | 0.00 | 78 | 1031.0 |
| 20260509065856 | 5 | 113 | 4.8 | 6.4 | 0.00 | 0.00 | 0.00 | 78 | 1031.0 |
| 20260509065357 | 5 | 113 | 1.6 | 4.8 | 0.00 | 0.00 | 0.00 | 78 | 1031.0 |
| 20260509064856 | 5 | 113 | 3.2 | 6.4 | 0.00 | 0.00 | 0.00 | 78 | 1031.0 |
| 20260509064356 | 5 | 113 | 3.2 | 6.4 | 0.00 | 0.00 | 0.00 | 78 | 1031.0 |
| 20260509063856 | 5 | 113 | 4.8 | 6.4 | 0.00 | 0.00 | 0.00 | 78 | 1031.0 |
| 20260509063356 | 5 | 113 | 6.4 | 6.4 | 0.00 | 0.00 | 0.00 | 77 | 1031.0 |
| 20260509062856 | 5 | 113 | 4.8 | 4.8 | 0.00 | 0.00 | 0.00 | 77 | 1031.0 |
| 20260509062356 | 5 | 113 | 3.2 | 4.8 | 0.00 | 0.00 | 0.00 | 77 | 1031.0 |
| 20260509061857 | 5 | 113 | 4.8 | 4.8 | 0.00 | 0.00 | 0.00 | 77 | 1031.0 |
| 20260509061356 | 5 | 113 | 3.2 | 4.8 | 0.00 | 0.00 | 0.00 | 77 | 1032.0 |
| 20260509060856 | 5 | 113 | 3.2 | 4.8 | 0.00 | 0.00 | 0.00 | 77 | 1032.0 |
| 20260509060356 | 5 | 113 | 3.2 | 4.8 | 0.00 | 0.00 | 0.00 | 77 | 1032.0 |
| 20260509055857 | 5 | 90 | 3.2 | 3.2 | 0.00 | 0.00 | 0.00 | 77 | 1032.0 |
| 20260509055356 | 5 | 113 | 3.2 | 4.8 | 0.00 | 0.00 | 0.00 | 76 | 1032.0 |
| 20260509054419 | 5 | 113 | 3.2 | 4.8 | 0.00 | 0.00 | 0.00 | 76 | 1032.0 |
| 20260509053856 | 5 | 90 | 1.6 | 4.8 | 0.00 | 0.00 | 0.00 | 76 | 1032.0 |
| 20260509053356 | 5 | 113 | 3.2 | 3.2 | 0.00 | 0.00 | 0.00 | 76 | 1032.0 |
| 20260509052857 | 5 | 113 | 4.8 | 4.8 | 0.00 | 0.00 | 0.00 | 76 | 1032.0 |
| 20260509052356 | 5 | 90 | 3.2 | 4.8 | 0.00 | 0.00 | 0.00 | 76 | 1032.0 |
| 20260509051856 | 5 | 135 | 3.2 | 4.8 | 0.00 | 0.00 | 0.00 | 76 | 1032.0 |
| 20260509051356 | 5 | 113 | 3.2 | 4.8 | 0.00 | 0.00 | 0.00 | 75 | 1032.0 |
| 20260509050859 | 5 | 113 | 1.6 | 3.2 | 0.00 | 0.00 | 0.00 | 75 | 1032.0 |
| 20260509050356 | 5 | 113 | 1.6 | 3.2 | 0.00 | 0.00 | 0.00 | 75 | 1032.0 |
| 20260509045856 | 5 | 158 | 1.6 | 3.2 | 0.00 | 0.00 | 0.00 | 75 | 1032.0 |
| 20260509045356 | 5 | 135 | 1.6 | 3.2 | 0.00 | 0.00 | 0.00 | 75 | 1033.0 |
| 20260509044856 | 5 | 113 | 1.6 | 3.2 | 0.00 | 0.00 | 0.00 | 75 | 1032.0 |
| 20260509044356 | 5 | 113 | 3.2 | 3.2 | 0.00 | 0.00 | 0.00 | 74 | 1032.0 |
| 20260509043856 | 5 | 113 | 1.6 | 4.8 | 0.00 | 0.00 | 0.00 | 74 | 1032.0 |
| 20260509043356 | 5 | 90 | 1.6 | 3.2 | 0.00 | 0.00 | 0.00 | 74 | 1033.0 |
| 20260509042857 | 5 | 113 | 1.6 | 3.2 | 0.00 | 0.00 | 0.00 | 74 | 1033.0 |
| 20260509042357 | 5 | 113 | 3.2 | 3.2 | 0.00 | 0.00 | 0.00 | 73 | 1033.0 |
| 20260509041857 | 5 | 135 | 0.0 | 1.6 | 0.00 | 0.00 | 0.00 | 73 | 1033.0 |
| 20260509041358 | 5 | 113 | 1.6 | 3.2 | 0.00 | 0.00 | 0.00 | 73 | 1033.0 |
| 20260509040856 | 5 | 113 | 3.2 | 3.2 | 0.00 | 0.00 | 0.00 | 73 | 1033.0 |
| 20260509040356 | 5 | 113 | 3.2 | 3.2 | 0.00 | 0.00 | 0.00 | 73 | 1033.0 |
| 20260509035857 | 5 | 135 | 0.0 | 3.2 | 0.00 | 0.00 | 0.20 | 73 | 1033.0 |
| 20260509035356 | 5 | 90 | 4.8 | 4.8 | 0.00 | 0.00 | 0.20 | 73 | 1033.0 |
| 20260509034856 | 5 | 113 | 1.6 | 1.6 | 0.00 | 0.00 | 0.20 | 72 | 1033.0 |
| 20260509034357 | 5 | 113 | 3.2 | 3.2 | 0.00 | 0.00 | 0.20 | 72 | 1033.0 |
| 20260509033856 | 5 | 113 | 1.6 | 1.6 | 0.00 | 0.00 | 0.20 | 72 | 1033.0 |
| 20260509033356 | 5 | 113 | 1.6 | 1.6 | 0.00 | 0.00 | 0.20 | 71 | 1033.0 |
| 20260509032856 | 5 | 113 | 1.6 | 1.6 | 0.00 | 0.00 | 0.20 | 71 | 1033.0 |
| 20260509032356 | 5 | 113 | 0.0 | 1.6 | 0.00 | 0.00 | 0.20 | 70 | 1033.0 |
| 20260509031859 | 5 | 135 | 0.0 | 1.6 | 0.00 | 0.00 | 0.20 | 69 | 1033.0 |
| 20260509031358 | 5 | 135 | 0.0 | 0.0 | 0.00 | 0.00 | 0.20 | 68 | 1033.0 |
| 20260509030856 | 5 | 113 | 0.0 | 0.0 | 0.00 | 0.00 | 0.20 | 67 | 1033.0 |
| 20260509030356 | 5 | 135 | 0.0 | 0.0 | 0.00 | 0.00 | 0.20 | 67 | 1033.0 |
| 20260509025857 | 5 | 113 | 1.6 | 1.6 | 0.00 | 0.00 | 0.20 | 66 | 1033.0 |
| 20260509025356 | 5 | 158 | 0.0 | 1.6 | 0.00 | 0.00 | 0.20 | 66 | 1033.0 |
| 20260509024856 | 5 | 113 | 0.0 | 1.6 | 0.00 | 0.00 | 0.20 | 65 | 1033.0 |
| 20260509024357 | 5 | 113 | 0.0 | 0.0 | 0.00 | 0.00 | 0.20 | 64 | 1033.0 |
| 20260509023856 | 6 | 135 | 0.0 | 0.0 | 0.00 | 0.00 | 0.20 | 62 | 1033.0 |
| 20260509023356 | 6 | 113 | 0.0 | 0.0 | 0.00 | 0.00 | 0.20 | 61 | 1033.0 |
| 20260509022858 | 6 | 135 | 0.0 | 0.0 | 0.00 | 0.00 | 0.20 | 59 | 1033.0 |
| 20260509022356 | 6 | 135 | 0.0 | 0.0 | 0.00 | 0.00 | 0.20 | 58 | 1033.0 |
| 20260509021856 | 6 | 135 | 0.0 | 0.0 | 0.00 | 0.00 | 0.20 | 57 | 1033.0 |
| 20260509021356 | 6 | 158 | 0.0 | 0.0 | 0.00 | 0.00 | 0.20 | 56 | 1033.0 |
| 20260509020856 | 7 | 113 | 0.0 | 0.0 | 0.00 | 0.00 | 0.20 | 55 | 1033.0 |
| 20260509020357 | 7 | 113 | 0.0 | 0.0 | 0.00 | 0.00 | 0.20 | 55 | 1033.0 |
| 20260509015856 | 7 | 113 | 0.0 | 0.0 | 0.00 | 0.00 | 0.20 | 54 | 1033.0 |
| 20260509015356 | 7 | 135 | 0.0 | 1.6 | 0.00 | 0.00 | 0.20 | 53 | 1033.0 |
| 20260509014856 | 7 | 135 | 0.0 | 0.0 | 0.00 | 0.00 | 0.20 | 51 | 1033.0 |
| 20260509014356 | 7 | 113 | 0.0 | 0.0 | 0.00 | 0.00 | 0.20 | 50 | 1033.0 |
| 20260509013856 | 8 | 113 | 0.0 | 0.0 | 0.00 | 0.00 | 0.20 | 49 | 1033.0 |
| 20260509013356 | 8 | 135 | 0.0 | 0.0 | 0.00 | 0.00 | 0.20 | 47 | 1033.0 |
| 20260509012857 | 8 | 113 | 0.0 | 0.0 | 0.00 | 0.00 | 0.20 | 45 | 1033.0 |
| 20260509012357 | 8 | 158 | 0.0 | 0.0 | 0.00 | 0.00 | 0.20 | 43 | 1033.0 |
| 20260509011856 | 8 | 135 | 0.0 | 0.0 | 0.00 | 0.00 | 0.20 | 43 | 1033.0 |
| 20260509011356 | 9 | 158 | 0.0 | 0.0 | 0.00 | 0.00 | 0.20 | 42 | 1033.0 |
| 20260509010856 | 10 | 180 | 0.0 | 0.0 | 0.00 | 0.00 | 0.20 | 41 | 1033.0 |
| 20260509010358 | 10 | 225 | 0.0 | 0.0 | 0.00 | 0.00 | 0.20 | 41 | 1033.0 |
| 20260509005856 | 10 | 248 | 0.0 | 1.6 | 0.00 | 0.00 | 0.20 | 39 | 1033.0 |
| 20260509005356 | 10 | 248 | 0.0 | 1.6 | 0.00 | 0.00 | 0.20 | 38 | 1033.0 |
| 20260509004856 | 10 | 248 | 1.6 | 1.6 | 0.00 | 0.00 | 0.20 | 38 | 1033.0 |
| 20260509003931 | 11 | 248 | 3.2 | 3.2 | 0.00 | 0.00 | 0.20 | 37 | 1033.0 |
| 20260509003356 | 11 | 270 | 1.6 | 3.2 | 0.00 | 0.00 | 0.20 | 37 | 1033.0 |
| 20260509002856 | 11 | 270 | 0.0 | 4.8 | 0.00 | 0.00 | 0.20 | 37 | 1033.0 |
| 20260509002357 | 11 | 270 | 4.8 | 9.7 | 0.00 | 0.00 | 0.20 | 36 | 1033.0 |
| 20260509001858 | 11 | 270 | 6.4 | 8.0 | 0.00 | 0.00 | 0.20 | 35 | 1033.0 |
| 20260509001356 | 12 | 248 | 4.8 | 6.4 | 0.00 | 0.00 | 0.20 | 35 | 1033.0 |
| 20260509000857 | 12 | 225 | 9.7 | 9.7 | 0.00 | 0.00 | 0.20 | 35 | 1032.0 |
| 20260509000356 | 12 | 225 | 4.8 | 4.8 | 0.00 | 0.00 | 0.20 | 35 | 1032.0 |
| 20260508235356 | 12 | 225 | 6.4 | 9.7 | 0.00 | 0.00 | 0.20 | 35 | 1032.0 |
| 20260508234856 | 12 | 225 | 6.4 | 8.0 | 0.00 | 0.00 | 0.20 | 35 | 1032.0 |
| 20260508234356 | 12 | 248 | 4.8 | 8.0 | 0.00 | 0.00 | 0.20 | 34 | 1032.0 |
| 20260508233856 | 12 | 225 | 6.4 | 9.7 | 0.00 | 0.00 | 0.20 | 34 | 1032.0 |
| 20260508233356 | 12 | 225 | 9.7 | 14.5 | 0.00 | 0.00 | 0.20 | 33 | 1032.0 |
| 20260508232856 | 13 | 203 | 4.8 | 6.4 | 0.00 | 0.00 | 0.20 | 33 | 1032.0 |
| 20260508232356 | 13 | 225 | 4.8 | 12.9 | 0.00 | 0.00 | 0.20 | 33 | 1032.0 |
| 20260508231858 | 13 | 248 | 12.9 | 12.9 | 0.00 | 0.00 | 0.20 | 33 | 1032.0 |
| 20260508231356 | 13 | 225 | 12.9 | 14.5 | 0.00 | 0.00 | 0.20 | 33 | 1032.0 |
| 20260508230856 | 13 | 270 | 8.0 | 9.7 | 0.00 | 0.00 | 0.20 | 33 | 1032.0 |
| 20260508230356 | 13 | 225 | 9.7 | 12.9 | 0.00 | 0.00 | 0.20 | 33 | 1032.0 |
| 20260508225856 | 13 | 225 | 8.0 | 12.9 | 0.00 | 0.00 | 0.20 | 33 | 1032.0 |
| 20260508225356 | 13 | 225 | 6.4 | 14.5 | 0.00 | 0.00 | 0.20 | 33 | 1032.0 |
| 20260508224856 | 13 | 225 | 11.3 | 14.5 | 0.00 | 0.00 | 0.20 | 34 | 1032.0 |
| 20260508224356 | 13 | 248 | 6.4 | 12.9 | 0.00 | 0.00 | 0.20 | 34 | 1032.0 |
| 20260508223856 | 13 | 180 | 9.7 | 11.3 | 0.00 | 0.00 | 0.20 | 35 | 1032.0 |
| 20260508223358 | 13 | 203 | 6.4 | 12.9 | 0.00 | 0.00 | 0.20 | 36 | 1033.0 |
| 20260508222856 | 13 | 225 | 6.4 | 9.7 | 0.00 | 0.00 | 0.20 | 36 | 1033.0 |
| 20260508222356 | 13 | 248 | 6.4 | 9.7 | 0.00 | 0.00 | 0.20 | 36 | 1033.0 |
| 20260508221856 | 14 | 225 | 9.7 | 11.3 | 0.00 | 0.00 | 0.20 | 36 | 1032.0 |
| 20260508221357 | 13 | 248 | 9.7 | 16.1 | 0.00 | 0.00 | 0.20 | 35 | 1033.0 |
| 20260508220856 | 13 | 203 | 9.7 | 11.3 | 0.00 | 0.00 | 0.20 | 35 | 1033.0 |
| 20260508220356 | 14 | 248 | 11.3 | 14.5 | 0.00 | 0.00 | 0.20 | 35 | 1032.0 |
| 20260508215856 | 15 | 270 | 8.0 | 9.7 | 0.00 | 0.00 | 0.20 | 35 | 1033.0 |
| 20260508215357 | 14 | 203 | 11.3 | 12.9 | 0.00 | 0.00 | 0.20 | 35 | 1032.0 |
| 20260508214856 | 13 | 225 | 8.0 | 12.9 | 0.00 | 0.00 | 0.20 | 35 | 1033.0 |
| 20260508214357 | 13 | 203 | 12.9 | 12.9 | 0.00 | 0.00 | 0.20 | 35 | 1033.0 |
| 20260508213857 | 13 | 248 | 14.5 | 14.5 | 0.00 | 0.00 | 0.20 | 35 | 1033.0 |
| 20260508213356 | 13 | 225 | 12.9 | 17.7 | 0.00 | 0.00 | 0.20 | 36 | 1033.0 |
| 20260508212857 | 13 | 203 | 8.0 | 12.9 | 0.00 | 0.00 | 0.20 | 36 | 1033.0 |
| 20260508212356 | 13 | 248 | 9.7 | 12.9 | 0.00 | 0.00 | 0.20 | 36 | 1033.0 |
| 20260508211857 | 13 | 248 | 12.9 | 14.5 | 0.00 | 0.00 | 0.20 | 36 | 1033.0 |
| 20260508211356 | 13 | 270 | 6.4 | 16.1 | 0.00 | 0.00 | 0.20 | 36 | 1033.0 |
| 20260508210856 | 13 | 225 | 12.9 | 17.7 | 0.00 | 0.00 | 0.20 | 36 | 1033.0 |
| 20260508210357 | 14 | 203 | 11.3 | 17.7 | 0.00 | 0.00 | 0.20 | 36 | 1033.0 |
| 20260508205856 | 15 | 225 | 16.1 | 16.1 | 0.00 | 0.00 | 0.20 | 36 | 1033.0 |
| 20260508205356 | 15 | 270 | 9.7 | 14.5 | 0.00 | 0.00 | 0.20 | 37 | 1033.0 |
| 20260508204856 | 15 | 225 | 12.9 | 12.9 | 0.00 | 0.00 | 0.20 | 37 | 1033.0 |
| 20260508204356 | 15 | 203 | 11.3 | 11.3 | 0.00 | 0.00 | 0.20 | 38 | 1033.0 |
| 20260508203856 | 15 | 225 | 4.8 | 11.3 | 0.00 | 0.00 | 0.20 | 38 | 1033.0 |
| 20260508203356 | 13 | 180 | 8.0 | 14.5 | 0.00 | 0.00 | 0.20 | 38 | 1033.0 |
| 20260508202857 | 14 | 203 | 14.5 | 17.7 | 0.00 | 0.00 | 0.20 | 38 | 1033.0 |
| 20260508202356 | 15 | 225 | 11.3 | 14.5 | 0.00 | 0.00 | 0.20 | 38 | 1033.0 |
| 20260508201856 | 15 | 180 | 3.2 | 11.3 | 0.00 | 0.00 | 0.20 | 38 | 1033.0 |
| 20260508201357 | 14 | 225 | 8.0 | 11.3 | 0.00 | 0.00 | 0.20 | 39 | 1033.0 |
| 20260508200856 | 14 | 203 | 12.9 | 12.9 | 0.00 | 0.00 | 0.20 | 39 | 1033.0 |
| 20260508200358 | 13 | 225 | 9.7 | 16.1 | 0.00 | 0.00 | 0.20 | 39 | 1033.0 |
| 20260508195856 | 13 | 180 | 8.0 | 16.1 | 0.00 | 0.00 | 0.20 | 40 | 1033.0 |
| 20260508195357 | 14 | 180 | 9.7 | 12.9 | 0.00 | 0.00 | 0.20 | 40 | 1033.0 |
| 20260508194856 | 14 | 203 | 12.9 | 12.9 | 0.00 | 0.00 | 0.20 | 40 | 1033.0 |
| 20260508194357 | 13 | 180 | 9.7 | 14.5 | 0.00 | 0.00 | 0.20 | 40 | 1033.0 |
| 20260508193857 | 14 | 203 | 12.9 | 12.9 | 0.00 | 0.00 | 0.20 | 39 | 1033.0 |
| 20260508193359 | 15 | 113 | 3.2 | 9.7 | 0.00 | 0.00 | 0.20 | 42 | 1033.0 |
| 20260508192856 | 15 | 248 | 9.7 | 14.5 | 0.00 | 0.00 | 0.20 | 43 | 1034.0 |
| 20260508192357 | 14 | 225 | 3.2 | 8.0 | 0.00 | 0.00 | 0.20 | 43 | 1034.0 |
| 20260508191856 | 14 | 203 | 6.4 | 11.3 | 0.00 | 0.00 | 0.20 | 43 | 1034.0 |
| 20260508191356 | 14 | 293 | 8.0 | 14.5 | 0.00 | 0.00 | 0.20 | 43 | 1034.0 |
| 20260508190856 | 15 | 225 | 6.4 | 9.7 | 0.00 | 0.00 | 0.20 | 44 | 1034.0 |
| 20260508190356 | 15 | 225 | 9.7 | 11.3 | 0.00 | 0.00 | 0.20 | 46 | 1034.0 |